Flag for Netherlands Weather past 2 weeks in Amersfoort, Netherlands

Now
46 °F

Mostly cloudy.


Feels Like: 39 °F
Forecast: 41 / 47 °F
Wind: 21 mph from West

Location: Deelen

Current Time: Mar 29, 2015 at 9:45:02 PM

Latest Report: Mar 29, 2015 at 8:55 PM


Visibility: N/A

Pressure: 29.30 "Hg

Humidity: 82%

Dew point: 41 °F

Location of AmersfoortLocation

Historic Weather in Amersfoort — Graph

°F

Amersfoort temperature yesterday

Maximum temperature yesterday: 52 °F (at 10:25 PM)
Minimum temperature yesterday: 30 °F (at 12:25 AM)
Average temperature yesterday: 43 °F

Past Weeks' High & Low Weather Summary

 TemperatureHumidityPressure
High63 °F (Mar 17, 1:55 PM)100% (Mar 16, 4:25 AM)30.39 "Hg (Mar 16, 4:25 AM)
Low25 °F (Mar 24, 3:55 AM)39% (Mar 17, 1:55 PM)29.15 "Hg (Mar 29, 6:55 PM)
Average42 °F85%30.06 "Hg
* Reported Mar 14 7:25 PM — Mar 29 8:25 PM, Amersfoort, Weather by CustomWeather, © 2015

Note: Actual official high and low records may vary slightly from our data, if they occured in-between our weather recording intervals... More about our weather records

Advertising

Amersfoort weather history for previous 24 hours

 ConditionsComfort  
Time TempWeatherWind HumidityBarometerVisibility
8:25 PM
Sun, Mar 29
46 °FCloudy.25 mph82%29.27 "HgN/A
7:55 PM48 °FCloudy.23 mph82%29.24 "HgN/A
7:25 PM50 °FBroken clouds.28 mph88%29.18 "HgN/A
6:55 PM52 °FDrizzle. Broken clouds.28 mph88%29.15 "HgN/A
6:25 PM52 °FDrizzle. Broken clouds.25 mph88%29.18 "Hg3 mi
5:55 PM50 °FLight rain. Mostly cloudy.26 mph94%29.18 "Hg3 mi
5:25 PM50 °FSprinkles. Partly sunny.25 mph100%29.21 "Hg2 mi
4:55 PM50 °FRain. Broken clouds.21 mph100%29.21 "Hg2 mi
4:25 PM50 °FRain. Broken clouds.16 mph100%29.27 "Hg3 mi
3:55 PM50 °FRain showers. Partly sunny.20 mph94%29.27 "Hg5 mi
3:25 PM50 °FLight rain. Partly sunny.20 mph94%29.30 "Hg4 mi
2:55 PM50 °FLight rain. Partly sunny.14 mph94%29.36 "HgN/A
2:25 PM48 °FRain. Cloudy.9 mph94%29.39 "Hg4 mi
1:55 PM48 °FRain. Broken clouds.12 mph94%29.42 "Hg4 mi
1:25 PM48 °FDrizzle. Mostly cloudy.13 mph94%29.45 "Hg6 mi
12:55 PM48 °FLight rain. Partly sunny.17 mph87%29.47 "HgN/A
12:25 PM48 °FDrizzle. Broken clouds.20 mph87%29.50 "Hg6 mi
11:55 AM48 °FSprinkles. Partly sunny.20 mph94%29.50 "Hg4 mi
11:25 AM48 °FDrizzle. Cloudy.16 mph94%29.53 "Hg5 mi
10:55 AM48 °FMostly cloudy.16 mph94%29.53 "HgN/A
10:25 AM48 °FCloudy.15 mph94%29.56 "HgN/A
9:55 AM48 °FDrizzle. Partly sunny.16 mph94%29.56 "Hg4 mi
9:25 AM48 °FMostly cloudy.16 mph87%29.59 "HgN/A
8:55 AM48 °FMore clouds than sun.16 mph87%29.59 "HgN/A
8:25 AM48 °FBroken clouds.17 mph87%29.59 "HgN/A
7:55 AM46 °FDrizzle. Overcast.16 mph93%29.59 "Hg2 mi
7:25 AM48 °FOvercast.20 mph82%29.59 "HgN/A
6:55 AM48 °FMostly cloudy.18 mph87%29.62 "HgN/A
6:25 AM48 °FOvercast.18 mph87%29.62 "HgN/A
5:55 AM50 °FMostly cloudy.20 mph82%29.62 "HgN/A
5:25 AM50 °FMostly cloudy.16 mph82%29.62 "HgN/A
4:55 AM50 °FOvercast.18 mph82%29.65 "HgN/A
4:25 AM50 °FMostly cloudy.20 mph88%29.65 "HgN/A
3:55 AM50 °FMostly cloudy.18 mph88%29.65 "HgN/A
3:25 AM50 °FMostly cloudy.18 mph88%29.65 "HgN/A
1:55 AM50 °FOvercast.21 mph94%29.65 "HgN/A
1:25 AM50 °FMostly cloudy.20 mph94%29.65 "HgN/A
12:55 AM50 °FPartly cloudy.14 mph94%29.68 "HgN/A
12:25 AM50 °FDrizzle. Overcast.17 mph94%29.68 "Hg2 mi
11:55 PM
Sat, Mar 28
52 °FMostly cloudy.16 mph88%29.68 "HgN/A
11:25 PM52 °FPassing clouds.18 mph88%29.68 "HgN/A
10:55 PM52 °FPartly cloudy.16 mph94%29.71 "Hg4 mi
10:25 PM52 °FPartly cloudy.15 mph94%29.74 "Hg2 mi
9:55 PM50 °FDrizzle. Mostly cloudy.16 mph100%29.71 "Hg2 mi
9:25 PM50 °FDrizzle. Mostly cloudy.15 mph100%29.74 "Hg1 mi
Weather by CustomWeather, © 2015

See weather overviewHow to use our weather pages